User: anonymous   Login
Location: Unspecified
(0.0000°N, 0.0000°E)
Time: 05:06:12
(UTC+00:00)
Language:

NATO 4A - Orbit

View from above orbital plane
View from above orbital plane
View from above satellite
View from above satellite

Ground track
Ground track

The orbit data is extracted from the following two-line orbital elements,

1 21047U 91001A   23335.08992122 -.00000027  00000-0  00000+0 0  9993
2 21047  13.1341   0.0921 0006049 191.6511 175.7357  0.98282034119028
Epoch (UTC): 01 December 2023 02:09:29
Eccentricity: 0.0006049
inclination: 13.1341°
perigee height: 36327 km
apogee height: 36379 km
right ascension of ascending node: 0.0921°
argument of perigee: 191.6511°
revolutions per day: 0.98282034
mean anomaly at epoch: 175.7357°
orbit number at epoch: 11902

The dashed part of the orbit path shows where the satellite is in the earth's shadow,  

DLR